Location: Hackbridge
(51.3833°N, 0.1500°W)
Time: 08:34:19
(UTC+00:00)

Cosmos 1076 Rocket - Pass Details

Date: 13 October 2019
Orbit: 589 x 613 km, 82.5° (Epoch: 17 November)

Event Time Altitude Azimuth Distance (km) Brightness Sun altitude
Rises 18:56:17 0° 355° (N) 2,896 7.2 -16.9°
Reaches altitude 10° 18:58:41 10° 5° (N) 1,985 6.2 -17.3°
Maximum altitude 19:02:43 35° 71° (ENE) 1,003 4.2 -17.9°
Enters shadow 19:02:49 35° 74° (ENE) 1,003 4.1 -18.0°
